sat.trackr.live / text

‹ back to catalog

STARLINK-5410

NORAD 54807 · 2022-175BB

PAYLOAD ACTIVE UNKNOWN

§ Identity

Operator
Country
US
Launch date
2022-12-17
Launch site
AFETR
Launch vehicle
Mass (kg)
RCS (m²)

Purposes: comms

External: N2YO · Heavens-Above · Gunter

§ Orbital elements

Epoch: 2026-05-24T23:47:02.481216Z

Period
95.44 min
Inclination
53.2155°
Eccentricity
0.0001338
Mean motion
15.08844190 rev/d
Perigee alt
538.8 km
Apogee alt
540.7 km
Semi-major
6,917.9 km
B*
-1.3179e-5
RAAN
46.2207°
Arg perigee
94.3009°
Mean anomaly
265.8136°
Rev number
19,165

§ Raw data

STARLINK-54101 54807U 22175BB  26144.99100094 -.00000498  00000+0 -13179-4 0  99972 54807  53.2155  46.2207 0001338  94.3009 265.8136 15.08844190191651

JSON: /api/v1/satellites/54807 · /tle

For live sub-satellite position, see the globe view (requires WebGL).

§ Visibility from observer

Set your observer location to see the next 7 days of passes ≥ 10°. The values pass through the URL so the page stays shareable.

No JS? Fill the form by hand. The geolocation button needs JavaScript.